ICT,Max TemperatureF,Mean TemperatureF,Min TemperatureF,Max Dew PointF,MeanDew PointF,Min DewpointF,Max Humidity, Mean Humidity, Min Humidity, Max Sea Level PressureIn, Mean Sea Level PressureIn, Min Sea Level PressureIn, Max VisibilityMiles, Mean VisibilityMiles, Min VisibilityMiles, Max Wind SpeedMPH, Mean Wind SpeedMPH, Max Gust SpeedMPH,PrecipitationIn, CloudCover, Events, WindDirDegrees
2013-8-1,84,78,71,78,74,72,94,83,74,29.83,29.77,29.71,5,4,3,21,7,32,0.16,6,Rain,254
2013-8-2,83,78,73,76,73,70,99,90,76,29.86,29.79,29.73,6,3,1,22,10,25,3.19,7,Rain-Thunderstorm,276
2013-8-3,85,78,72,77,74,72,94,82,68,29.86,29.81,29.74,6,4,2,18,5,30,0.16,6,Rain,254
2013-8-4,88,80,72,77,74,72,96,84,66,29.86,29.81,29.75,6,5,4,10,2,,0.00,6,Rain,274
2013-8-5,89,82,74,77,74,70,94,79,64,29.89,29.83,29.76,6,6,4,14,3,,0.04,5,,282
2013-8-6,86,80,74,77,74,72,94,84,69,29.89,29.84,29.76,6,5,1,23,8,33,0.67,6,Rain,270
2013-8-7,86,80,74,78,75,72,94,82,70,29.86,29.81,29.74,6,4,2,18,7,,0.55,6,Rain,268
2013-8-8,87,81,75,79,74,72,94,79,66,29.86,29.81,29.74,6,4,4,17,10,25,0.08,6,Rain,263
2013-8-9,86,82,78,76,74,73,89,76,61,29.86,29.81,29.76,6,5,3,16,5,,0.01,6,Rain,246
2013-8-10,86,80,74,76,74,72,89,79,66,29.86,29.81,29.68,6,5,1,16,5,32,0.35,6,Rain,249
2013-8-11,87,82,77,78,74,72,94,81,66,29.86,29.81,29.74,6,5,3,15,4,20,0.35,6,Rain,247
2013-8-12,86,80,73,76,74,72,94,82,70,29.83,29.78,29.73,6,5,2,22,5,,0.08,6,Rain,264
2013-8-13,86,79,72,77,74,70,95,81,69,29.83,29.77,29.71,6,5,2,17,5,34,0.16,6,Rain,261
2013-8-14,87,81,75,76,74,72,89,75,62,29.83,29.78,29.74,6,6,5,16,10,,0.00,6,,256
2013-8-15,89,82,74,77,73,70,95,77,55,29.89,29.84,29.77,6,5,4,10,2,,0.00,6,,290
2013-8-16,89,80,72,76,74,72,94,79,63,29.89,29.84,29.77,6,6,5,15,4,23,0.00,6,,298
2013-8-17,88,82,75,76,73,72,89,74,57,29.89,29.84,29.76,6,6,5,15,7,,0.00,4,,283
2013-8-18,89,82,76,74,72,70,74,68,55,29.92,29.85,29.80,6,6,5,16,11,,0.00,2,,283
2013-8-19,88,82,75,76,72,72,79,69,58,29.89,29.84,29.78,6,6,6,16,9,,0.00,4,,278
2013-8-20,88,82,75,76,73,72,83,72,59,29.89,29.83,29.77,6,6,4,16,10,,0.00,3,Rain,274
2013-8-21,88,82,76,77,73,72,79,70,58,29.86,29.81,29.76,6,5,3,20,10,,0.04,5,Rain,264
2013-8-22,87,84,82,75,74,73,74,71,62,29.86,29.81,29.77,6,6,5,17,10,24,0.00,5,,251
2013-8-23,87,82,78,76,73,70,79,71,63,29.86,29.82,29.74,6,6,6,14,7,25,0.00,6,,245
2013-8-24,89,84,78,77,74,72,84,73,62,29.86,29.80,29.74,6,6,5,17,7,,0.00,6,,249
2013-8-25,87,81,75,79,75,72,94,80,66,29.86,29.81,29.74,6,6,3,15,4,,0.43,5,Rain,263
2013-8-26,87,81,75,77,74,73,89,75,62,29.86,29.81,29.73,6,6,6,14,5,,0.00,4,,280
2013-8-27,87,82,77,77,74,72,94,77,64,29.89,29.83,29.76,6,6,3,14,4,,0.00,6,Rain,293
2013-8-28,88,82,76,77,74,70,94,80,60,29.92,29.85,29.76,6,5,0,13,5,,0.59,5,Rain,286
2013-8-29,88,82,75,77,74,72,94,78,62,29.92,29.87,29.78,6,5,4,13,5,,0.04,6,Rain,272
2013-8-30,88,80,73,78,75,72,94,82,68,29.92,29.85,29.76,6,6,1,18,5,,1.10,6,Rain,282
2013-8-31,87,79,71,78,74,72,95,80,66,29.89,29.83,29.75,6,6,3,15,3,,0.79,6,Rain,285